WA5LEE Weather Reports


Display with metric or nautical units.
time (UTC)temp
F
wind
direction
speed
MPH
gust
MPH
rain 1hr
in
rain 24hr
in
rain mn
in
humidity
%
barometer
mb
20260509224006 93 197 0.0 1.0 0.00 0.00 0.00 60 1007.9
20260509223028 91 76 0.0 0.0 0.00 0.00 0.00 63 1007.7
20260509222504 91 76 0.0 0.0 0.00 0.00 0.00 63 1007.7
20260509222008 91 76 0.0 2.0 0.00 0.00 0.00 59 1007.6
20260509221522 92 76 0.0 2.0 0.00 0.00 0.00 57 1007.5
20260509221009 92 78 0.0 2.0 0.00 0.00 0.00 55 1007.6
20260509220508 93 71 0.0 2.0 0.00 0.00 0.00 59 1007.7
20260509220023 93 32 0.0 2.0 0.00 0.00 0.00 58 1007.6
20260509215511 92 245 0.0 2.0 0.00 0.00 0.00 55 1007.6
20260509214526 95 96 0.0 2.0 0.00 0.00 0.00 53 1007.6
20260509213509 94 220 0.0 2.0 0.00 0.00 0.00 55 1007.7
20260509212012 94 213 1.0 2.0 0.00 0.00 0.00 57 1007.8
20260509211517 93 240 0.0 1.0 0.00 0.00 0.00 56 1007.7
20260509211006 92 79 0.0 2.0 0.00 0.00 0.00 58 1007.7
20260509210510 93 89 0.0 2.0 0.00 0.00 0.00 57 1007.8
20260509210034 93 223 1.0 2.0 0.00 0.00 0.00 57 1008.0
20260509205507 93 113 0.0 2.0 0.00 0.00 0.00 57 1008.1
20260509205010 93 189 0.0 2.0 0.00 0.00 0.00 58 1008.1
20260509204534 93 207 0.0 2.0 0.00 0.00 0.00 58 1008.2
20260509204007 93 246 0.0 2.0 0.00 0.00 0.00 58 1008.2
20260509203509 93 192 0.0 2.0 0.00 0.00 0.00 59 1008.2
20260509203022 92 160 0.0 3.0 0.00 0.00 0.00 61 1008.2
20260509202509 91 197 0.0 3.0 0.00 0.00 0.00 60 1008.3
20260509202007 91 213 1.0 2.0 0.00 0.00 0.00 62 1008.4
20260509201010 90 147 0.0 2.0 0.00 0.00 0.00 65 1008.5
20260509200514 89 217 1.0 2.0 0.00 0.00 0.00 66 1008.6
20260509200018 89 324 0.0 2.0 0.00 0.00 0.00 66 1008.8
20260509195509 89 251 1.0 2.0 0.00 0.00 0.00 63 1008.7
20260509194517 88 277 0.0 2.0 0.00 0.00 0.00 71 1008.8
20260509194003 87 323 0.0 2.0 0.00 0.00 0.00 67 1009.0
20260509193504 87 348 0.0 2.0 0.00 0.00 0.00 69 1009.0
20260509193013 86 35 0.0 2.0 0.00 0.00 0.00 73 1009.1
20260509192502 86 259 0.0 2.0 0.00 0.00 0.00 71 1009.2
20260509192004 86 263 0.0 2.0 0.00 0.00 0.00 73 1009.2
20260509191517 86 54 0.0 2.0 0.00 0.00 0.00 74 1009.3
20260509191008 86 146 0.0 2.0 0.00 0.00 0.00 73 1009.3
20260509190503 85 227 0.0 2.0 0.00 0.00 0.00 75 1009.3
20260509190009 84 255 0.0 2.0 0.00 0.00 0.00 75 1009.4
20260509185503 84 331 0.0 2.0 0.00 0.00 0.00 75 1009.4
20260509183507 84 196 0.0 0.0 0.00 0.00 0.00 75 1009.7
20260509183009 84 196 0.0 1.0 0.00 0.00 0.00 74 1009.8
20260509182507 84 196 0.0 2.0 0.00 0.00 0.00 74 1009.8
20260509182008 84 196 0.0 2.0 0.00 0.00 0.00 74 1009.9
20260509181520 84 171 0.0 1.0 0.00 0.00 0.00 76 1010.0
20260509181004 84 171 0.0 1.0 0.00 0.00 0.00 75 1010.1
20260509180503 84 171 0.0 2.0 0.00 0.00 0.00 76 1010.1
20260509180019 84 61 0.0 2.0 0.00 0.00 0.00 76 1010.2
20260509175503 84 352 0.0 2.0 0.00 0.00 0.00 75 1010.2
20260509175006 84 352 0.0 2.0 0.00 0.00 0.00 75 1010.4
20260509174514 83 250 0.0 2.0 0.00 0.00 0.00 75 1010.4
20260509174006 83 265 0.0 2.0 0.00 0.00 0.00 74 1010.4
20260509173503 83 198 0.0 2.0 0.00 0.00 0.00 78 1010.6
20260509172507 82 234 0.0 2.0 0.00 0.00 0.00 78 1010.3
20260509172003 82 123 0.0 2.0 0.00 0.00 0.00 78 1010.3
20260509171509 82 94 0.0 2.0 0.00 0.00 0.00 81 1010.3
20260509171006 81 38 0.0 3.0 0.00 0.00 0.00 80 1010.2
20260509170004 81 218 0.0 3.0 0.00 0.00 0.00 81 1010.1
20260509165505 80 98 0.0 3.0 0.00 0.00 0.00 83 1010.1
20260509165007 80 98 0.0 3.0 0.00 0.00 0.00 83 1010.2
20260509164504 80 226 1.0 3.0 0.00 0.00 0.00 83 1010.3
20260509164003 79 139 0.0 2.0 0.00 0.00 0.00 83 1010.2
20260509163506 79 225 0.0 2.0 0.00 0.00 0.00 82 1010.3
20260509163024 79 225 0.0 2.0 0.00 0.00 0.00 83 1010.4
20260509162502 79 65 0.0 1.0 0.00 0.00 0.00 84 1010.4
20260509161516 79 325 0.0 0.0 0.00 0.00 0.00 84 1010.4
20260509161001 79 309 0.0 0.0 0.00 0.00 0.00 85 1010.3
20260509160504 78 213 0.0 2.0 0.00 0.00 0.00 86 1010.3
20260509155003 78 213 0.0 2.0 0.00 0.00 0.00 85 1010.8
20260509154512 78 213 0.0 2.0 0.00 0.00 0.00 86 1011.0
20260509154009 77 213 0.0 2.0 0.00 0.00 0.00 86 1010.9
20260509153020 77 173 0.0 2.0 0.00 0.00 0.00 87 1010.9
20260509152504 77 173 0.0 1.0 0.00 0.00 0.00 87 1010.8
20260509152017 77 173 0.0 1.0 0.00 0.00 0.00 87 1010.8
20260509151508 77 38 0.0 2.0 0.00 0.00 0.00 87 1010.8
20260509150507 76 250 0.0 2.0 0.00 0.00 0.00 88 1010.8
20260509150030 76 250 0.0 0.0 0.00 0.00 0.00 89 1010.7
20260509145503 76 250 0.0 0.0 0.00 0.00 0.00 90 1010.6
20260509145010 75 250 0.0 0.0 0.00 0.00 0.00 90 1010.6
20260509144007 75 250 0.0 0.0 0.00 0.00 0.00 90 1010.5
20260509143504 75 250 0.0 0.0 0.00 0.00 0.00 91 1010.4
20260509143021 75 250 0.0 0.0 0.00 0.00 0.00 90 1010.3
20260509142508 75 250 0.0 1.0 0.00 0.00 0.00 91 1010.3
20260509142008 74 250 0.0 1.0 0.00 0.00 0.00 91 1010.1
20260509141519 74 250 0.0 0.0 0.00 0.00 0.00 91 1010.0
20260509141008 74 298 0.0 0.0 0.00 0.00 0.00 91 1010.0
20260509140503 74 298 0.0 0.0 0.00 0.00 0.00 91 1010.1
20260509140012 74 298 0.0 0.0 0.00 0.00 0.00 92 1010.1
20260509135509 0 0.0 0.0 0.00 0.00 0.00 1010.0
20260509135014 0 0.0 0.0 0.00 0.00 0.00 1010.2
20260509134545 0 0.0 0.0 0.00 0.00 0.00 1010.1
20260509134013 0 0.0 0.0 0.00 0.00 0.00 1010.4
20260509133514 0 0.0 0.0 0.00 0.00 0.00 1010.4
20260509133032 0 0.0 0.0 0.00 0.00 0.00 1010.7
20260509132513 0 0.0 0.0 0.00 0.00 0.00 1010.6
20260509132013 0 0.0 0.0 0.00 0.00 0.00 1010.6
20260509131531 0 0.0 0.0 0.00 0.00 0.00 1010.7
20260509131013 0 0.0 0.0 0.00 0.00 0.00 1010.8
20260509130513 0 0.0 0.0 0.00 0.00 0.00 1010.7
20260509130034 0 0.0 0.0 0.00 0.00 0.00 1010.6
20260509125511 0 0.0 0.0 0.00 0.00 0.00 1010.4
20260509125008 0 0.0 0.0 0.00 0.00 0.00 1010.5
20260509124534 0 0.0 0.0 0.00 0.00 0.00 1010.7
20260509124010 0 0.0 0.0 0.00 0.00 0.00 1010.7
20260509123510 0 0.0 0.0 0.00 0.00 0.00 1010.7
20260509123028 0 0.0 0.0 0.00 0.00 0.00 1010.7
20260509122512 0 0.0 0.0 0.00 0.00 0.00 1010.6
20260509122016 0 0.0 0.0 0.00 0.00 0.00 1010.4
20260509121540 0 0.0 0.0 0.00 0.00 0.00 1010.4
20260509121010 0 0.0 0.0 0.00 0.00 0.00 1010.2
20260509120512 0 0.0 0.0 0.00 0.00 0.00 1009.9
20260509120032 0 0.0 0.0 0.00 0.00 0.00 1009.7
20260509115510 0 0.0 0.0 0.00 0.00 0.00 1009.6
20260509115015 0 0.0 0.0 0.00 0.00 0.00 1009.7
20260509114536 0 0.0 0.0 0.00 0.00 0.00 1009.9
20260509114011 0 0.0 0.0 0.00 0.00 0.00 1009.9
20260509113510 0 0.0 0.0 0.00 0.00 0.00 1009.9
20260509113036 0 0.0 0.0 0.00 0.00 0.00 1009.9
20260509110511 0 0.0 0.0 0.00 0.00 0.00 1010.3
20260509104540 0 0.0 0.0 0.00 0.00 0.00 1010.1
20260509104013 0 0.0 0.0 0.00 0.00 0.00 1010.2
20260509103511 0 0.0 0.0 0.00 0.00 0.00 1010.2
20260509103031 0 0.0 0.0 0.00 0.00 0.00 1010.1
20260509101541 0 0.0 0.0 0.00 0.00 0.00 1009.7
20260509101010 0 0.0 0.0 0.00 0.00 0.00 1009.5
20260509095510 0 0.0 0.0 0.00 0.00 0.00 1009.1
20260509094011 0 0.0 0.0 0.00 0.00 0.00 1009.2
20260509093509 0 0.0 0.0 0.00 0.00 0.00 1009.5
20260509093031 0 0.0 0.0 0.00 0.00 0.00 1009.5
20260509092509 0 0.0 0.0 0.00 0.00 0.00 1009.7
20260509092011 0 0.0 0.0 0.00 0.00 0.00 1009.8
20260509091538 0 0.0 0.0 0.00 0.00 0.00 1009.8
20260509091011 0 0.0 0.0 0.00 0.00 0.00 1009.7
20260509085508 0 0.0 0.0 0.00 0.00 0.00 1009.8
20260509085012 0 0.0 0.0 0.00 0.00 0.00 1009.9
20260509084536 0 0.0 0.0 0.00 0.00 0.00 1010.1
20260509084010 0 0.0 0.0 0.00 0.00 0.00 1010.0
20260509083510 0 0.0 0.0 0.00 0.00 0.00 1009.9
20260509083032 0 0.0 0.0 0.00 0.00 0.00 1010.0
20260509082510 73 0.0 0.0 0.00 0.00 0.00 1009.9
20260509082012 73 0.0 0.0 0.00 0.00 0.00 1009.8
20260509081524 73 268 0.0 0.0 0.00 0.00 0.00 92 1009.7
20260509081008 73 268 0.0 0.0 0.00 0.00 0.00 92 1009.7
20260509080504 73 268 0.0 0.0 0.00 0.00 0.00 92 1009.6
20260509080014 73 268 0.0 0.0 0.00 0.00 0.00 92 1009.6
20260509075507 73 182 0.0 0.0 0.00 0.00 0.00 91 1009.5
20260509075008 73 182 0.0 0.0 0.00 0.00 0.00 91 1009.6
20260509074006 73 182 0.0 0.0 0.00 0.00 0.00 91 1009.6
20260509073507 73 182 0.0 0.0 0.00 0.00 0.00 91 1009.7
20260509073011 72 182 0.0 0.0 0.00 0.00 0.00 91 1009.8
20260509072505 73 182 0.0 0.0 0.00 0.00 0.00 91 1009.8
20260509071522 73 182 0.0 0.0 0.00 0.00 0.00 91 1009.8
20260509071004 73 182 0.0 0.0 0.00 0.00 0.00 91 1009.8
20260509070507 73 182 0.0 0.0 0.00 0.00 0.00 91 1009.8
20260509070023 73 182 0.0 0.0 0.00 0.00 0.00 91 1009.8
20260509065504 73 182 0.0 0.0 0.00 0.00 0.00 91 1009.8
20260509065004 73 182 0.0 0.0 0.00 0.00 0.00 91 1009.9
20260509064520 72 182 0.0 0.0 0.00 0.00 0.00 91 1009.9
20260509064013 72 182 0.0 0.0 0.00 0.00 0.00 91 1009.9
20260509063505 72 182 0.0 0.0 0.00 0.00 0.00 91 1010.0
20260509063024 72 182 0.0 0.0 0.00 0.00 0.00 91 1009.9
20260509062508 72 182 0.0 0.0 0.00 0.00 0.00 91 1009.9
20260509062015 72 182 0.0 0.0 0.00 0.00 0.00 91 1010.1
20260509061513 72 182 0.0 0.0 0.00 0.00 0.00 91 1010.2
20260509061012 72 182 0.0 0.0 0.00 0.00 0.00 91 1010.4
20260509060508 72 182 0.0 0.0 0.00 0.00 0.00 91 1010.3
20260509060017 72 182 0.0 0.0 0.00 0.00 0.00 91 1010.3
20260509055509 72 182 0.0 0.0 0.00 0.00 0.00 91 1010.3
20260509055009 72 182 0.0 0.0 0.00 0.00 0.00 91 1010.4
20260509054534 72 182 0.0 0.0 0.00 0.00 0.00 91 1010.3
20260509054005 72 182 0.0 0.0 0.00 0.00 0.00 91 1010.3
20260509053507 72 49 0.0 0.0 0.00 0.00 0.00 91 1010.3
20260509053024 72 49 0.0 0.0 0.00 0.00 0.00 91 1010.4
20260509052503 72 49 0.0 0.0 0.00 0.00 0.00 91 1010.4
20260509052007 72 49 0.0 0.0 0.00 0.00 0.00 91 1010.3
20260509051522 72 49 0.0 0.0 0.00 0.00 0.00 91 1010.3
20260509051010 72 49 0.0 0.0 0.00 0.00 0.00 91 1010.2
20260509050506 72 49 0.0 0.0 0.00 0.00 0.00 91 1010.4
20260509050019 72 49 0.0 0.0 0.00 0.00 0.00 91 1010.3
20260509045513 72 49 0.0 0.0 0.00 0.00 0.00 91 1010.4
20260509045004 72 49 0.0 0.0 0.00 0.00 0.00 91 1010.5
20260509044515 72 49 0.0 0.0 0.00 0.00 0.00 91 1010.5
20260509044012 72 49 0.0 0.0 0.00 0.00 0.00 91 1010.6
20260509043510 72 33 0.0 0.0 0.00 0.00 0.00 91 1010.5
20260509043012 72 31 0.0 0.0 0.00 0.00 0.00 91 1010.6
20260509042509 72 31 0.0 0.0 0.00 0.00 0.00 91 1010.4
20260509042011 72 31 0.0 0.0 0.00 0.00 0.00 91 1010.3
20260509041511 72 44 0.0 0.0 0.00 0.00 0.00 91 1010.5
20260509041007 72 44 0.0 0.0 0.00 0.00 0.00 91 1010.5
20260509040509 72 44 0.0 0.0 0.00 0.00 0.00 91 1010.3
20260509040024 72 44 0.0 0.0 0.00 0.00 0.00 91 1010.3
20260509035506 72 41 0.0 0.0 0.00 0.00 0.00 91 1010.3
20260509035005 72 42 0.0 0.0 0.00 0.00 0.00 91 1010.2
20260509034527 72 44 0.0 0.0 0.00 0.00 0.00 91 1010.2
20260509034010 72 44 0.0 0.0 0.00 0.00 0.00 91 1010.2
20260509033508 72 44 0.0 2.0 0.00 0.00 0.00 91 1010.2
20260509033026 72 44 0.0 2.0 0.00 0.00 0.00 91 1010.2
20260509032511 72 44 0.0 2.0 0.00 0.00 0.00 90 1010.2
20260509032009 72 42 0.0 0.0 0.00 0.00 0.00 91 1010.2
20260509031530 72 42 0.0 2.0 0.00 0.00 0.00 90 1010.2
20260509031010 72 44 0.0 2.0 0.00 0.00 0.00 90 1010.1
20260509030511 72 43 0.0 1.0 0.00 0.00 0.00 90 1010.1
20260509030018 72 43 0.0 2.0 0.00 0.00 0.00 90 1010.1
20260509025507 72 31 0.0 2.0 0.00 0.00 0.00 90 1010.0
20260509025009 72 44 0.0 1.0 0.00 0.00 0.00 90 1009.9
20260509024516 72 44 0.0 2.0 0.00 0.00 0.00 90 1009.8
20260509024008 72 44 0.0 2.0 0.00 0.00 0.00 90 1009.7
20260509023508 72 180 0.0 1.0 0.00 0.00 0.00 90 1009.7
20260509023029 72 84 0.0 0.0 0.00 0.00 0.00 90 1009.8
20260509022509 72 84 0.0 2.0 0.00 0.00 0.00 90 1009.7
20260509022010 72 84 0.0 2.0 0.00 0.00 0.00 90 1009.6
20260509021533 72 84 0.0 2.0 0.00 0.00 0.00 90 1009.5
20260509021007 72 84 0.0 2.0 0.00 0.00 0.00 90 1009.5
20260509020508 72 84 0.0 2.0 0.00 0.00 0.00 90 1009.5
20260509020040 72 194 0.0 0.0 0.00 0.00 0.00 90 1009.6
20260509015510 72 194 0.0 2.0 0.00 0.00 0.00 90 1009.5
20260509014501 72 195 0.0 0.0 0.00 0.00 0.00 90 1009.5
20260509014002 72 195 0.0 0.0 0.00 0.00 0.00 90 1009.6
20260509013502 72 194 0.0 0.0 0.00 0.00 0.00 89 1009.6
20260509013006 72 194 0.0 0.0 0.00 0.00 0.00 89 1009.7
20260509012503 73 195 0.0 1.0 0.00 0.00 0.00 89 1009.6
20260509011503 73 61 0.0 2.0 0.00 0.00 0.00 89 1009.3
20260509011002 73 89 0.0 2.0 0.00 0.00 0.00 89 1009.3
20260509010503 73 89 0.0 2.0 0.00 0.00 0.00 89 1009.3
20260509010005 73 89 0.0 2.0 0.00 0.00 0.00 89 1009.3
20260509005503 73 83 0.0 1.0 0.00 0.00 0.00 89 1009.2
20260509005003 73 103 0.0 0.0 0.00 0.00 0.00 89 1009.1
20260509004507 73 103 0.0 2.0 0.00 0.00 0.00 89 1009.1
20260509004006 73 102 0.0 2.0 0.00 0.00 0.00 89 1009.0
20260509003503 73 121 0.0 2.0 0.00 0.00 0.00 89 1009.1
20260509003003 73 63 0.0 1.0 0.00 0.00 0.00 89 1009.2
20260509002504 73 57 0.0 2.0 0.00 0.00 0.00 89 1009.2
20260509002002 73 66 0.0 2.0 0.00 0.00 0.00 88 1009.4
20260509001506 74 66 0.0 2.0 0.00 0.00 0.00 88 1009.6
20260509000503 74 95 0.0 2.0 0.00 0.00 0.00 87 1009.5
20260509000004 74 58 0.0 0.0 0.00 0.00 0.00 87 1009.3
20260508235503 74 76 0.0 0.0 0.00 0.00 0.00 87 1009.3
20260508235004 74 76 0.0 2.0 0.00 0.00 0.00 87 1009.4
20260508234504 75 76 0.0 2.0 0.00 0.00 0.00 87 1009.4
20260508234003 75 94 0.0 2.0 0.00 0.00 0.00 86 1009.6
20260508233503 75 92 0.0 2.0 0.00 0.00 0.00 86 1009.4
20260508233006 75 245 0.0 2.0 0.00 0.00 0.00 86 1009.4
20260508232504 75 76 0.0 2.0 0.00 0.00 0.00 86 1009.4
20260508232005 75 93 0.0 2.0 0.00 0.00 0.00 86 1009.4
20260508231504 75 93 0.0 2.0 0.00 0.00 0.00 85 1009.6
20260508231004 75 93 0.0 2.0 0.00 0.00 0.00 85 1009.5
20260508230504 75 93 0.0 2.0 0.00 0.00 0.00 85 1009.4
20260508230004 76 76 0.0 2.0 0.00 0.00 0.00 85 1009.3
20260508225506 76 76 0.0 2.0 0.00 0.00 0.00 85 1009.3
20260508225004 76 76 0.0 0.0 0.00 0.00 0.00 85 1009.3
20260508224504 76 76 0.0 0.0 0.00 0.00 0.00 85 1009.4